Wind_Speed
28 27 25 24 22 21 19 18 17 16 15 14 13 12 11 10 10 9 8 8 8 9 10 12 13 14 15 16 18 19 21 21 21 22 23 23 24 24 26 27 28 30 31 32 33 35 38 40 40 39 37 35 32 28 24 20 14 9 2 5 7 6 7 6 4 4 5 6 8 11 13 13 12 12 10 8 10 11 11 9 7 7 6 6 5 4 3 3
31 30 28 27 26 24 22 21 20 19 18 17 16 14 13 13 12 11 10 9 9 9 10 11 12 13 14 15 16 18 19 20 20 21 22 22 23 23 24 25 27 28 29 30 31 33 35 38 39 38 37 35 34 30 27 24 19 14 7 5 8 7 6 4 3 4 4 5 6 8 11 13 12 13 10 8 10 11 11 9 7 7 6 5 5 4 4 2
34 33 31 30 29 27 26 24 23 22 21 20 19 17 16 15 15 14 13 11 10 10 10 10 11 12 13 14 15 16 17 19 20 20 20 21 22 23 23 23 25 27 28 29 30 31 32 35 37 38 37 36 35 32 30 27 23 19 13 9 7 5 5 4 4 5 5 4 5 6 8 11 12 13 12 10 11 11 9 8 7 6 5 4 4 4 4 3
37 35 34 33 32 31 29 27 26 24 23 22 21 20 19 17 17 17 16 14 12 11 11 11 11 11 12 13 14 15 16 17 19 19 20 20 21 22 23 23 23 25 27 27 28 29 30 32 35 37 38 37 35 33 32 29 26 23 18 14 9 5 4 4 5 6 5 5 6 6 7 9 11 12 12 11 10 9 8 7 6 5 3 2 2 2 3 3
40 38 37 36 35 34 32 31 29 27 26 25 24 23 21 20 19 19 19 17 15 13 12 12 11 11 12 13 13 14 15 16 17 18 19 20 20 21 22 22 22 23 25 26 27 27 28 30 32 35 37 36 34 33 32 30 27 25 20 15 11 7 5 4 4 6 6 5 6 7 7 7 8 8 9 9 8 7 5 5 5 4 2 0 0 1 1 1
42 41 40 39 38 37 36 34 32 30 29 28 27 26 24 22 21 21 21 20 18 16 14 13 13 12 12 12 13 13 14 14 16 17 18 19 19 20 20 21 22 21 22 24 25 26 27 28 30 33 35 36 34 33 32 31 29 26 22 17 13 10 7 6 4 4 6 7 7 8 7 6 5 4 3 4 4 3 2 2 1 1 0 1 1 2 2 2
43 43 42 41 41 40 39 37 35 33 32 31 30 29 26 25 24 23 23 22 21 19 16 15 14 13 12 12 13 13 13 14 14 16 17 18 19 19 19 20 21 21 21 22 24 25 25 26 27 30 33 35 35 33 32 31 30 27 24 21 17 13 12 10 7 3 3 6 8 9 8 6 5 3 1 1 0 1 1 2 2 2 2 2 3 4 4 5
44 44 44 44 43 42 41 40 38 36 35 33 33 32 29 28 27 25 24 24 23 21 19 17 16 15 14 13 13 13 14 13 13 14 15 17 18 18 19 19 20 20 20 20 22 23 24 25 26 27 30 33 34 34 32 32 31 28 25 24 22 20 17 14 10 5 0 4 9 11 9 7 6 4 2 2 2 2 2 3 4 5 5 6 6 6 6 7
44 44 45 45 45 44 44 43 41 39 37 36 35 34 32 30 29 28 27 26 25 23 22 20 18 16 15 14 13 14 14 13 13 13 14 15 17 18 18 18 18 19 19 19 19 21 23 23 24 25 28 31 33 34 33 32 31 30 28 26 26 25 22 17 12 7 2 2 7 11 10 8 6 4 2 3 2 2 3 4 5 6 7 8 8 8 8 8
45 45 45 45 45 46 46 45 43 41 40 38 38 37 35 33 32 31 29 28 26 25 24 22 20 19 17 15 14 14 14 14 13 13 13 14 16 17 18 18 18 18 18 18 18 19 21 22 23 24 25 28 31 33 33 31 31 31 30 27 27 27 24 20 14 10 6 4 4 6 7 7 6 4 2 2 4 4 4 5 6 7 8 9 10 10 10 10
48 47 46 46 46 46 47 47 46 44 42 41 41 39 37 36 35 34 32 30 29 28 26 24 22 21 19 17 16 15 15 14 14 13 13 13 14 16 17 17 17 17 17 18 17 17 19 21 22 23 24 26 29 31 32 31 31 31 31 29 27 26 25 22 17 14 13 11 9 6 4 3 4 5 2 2 4 4 4 6 7 7 8 9 10 10 11 11
51 49 48 48 47 47 47 47 47 46 45 43 43 42 40 39 37 36 35 32 31 30 28 26 24 23 21 20 18 17 16 15 14 14 13 13 14 15 16 17 17 17 16 17 17 16 17 19 20 21 23 24 26 29 31 31 31 30 30 30 28 27 25 23 20 18 17 16 15 13 9 6 5 3 2 3 4 4 4 6 6 6 8 9 9 10 11 11
54 53 51 50 49 49 48 48 47 47 46 45 46 44 42 41 40 39 38 35 33 32 30 29 27 25 24 22 20 18 17 16 15 14 14 13 13 14 15 16 17 17 16 16 16 15 15 17 18 20 21 22 24 26 29 30 30 30 30 30 29 28 25 23 21 20 19 18 16 14 11 8 5 2 2 1 2 3 5 7 6 6 8 8 9 9 9 9
57 56 54 53 52 51 50 49 49 48 47 47 47 47 45 44 42 42 40 38 36 34 33 32 29 28 26 24 23 21 19 18 16 15 14 14 14 14 15 16 16 16 16 15 15 15 14 14 16 18 19 21 22 24 26 28 29 29 30 29 29 28 26 24 21 19 19 18 16 15 13 10 6 4 4 3 3 1 3 6 6 6 6 6 8 8 8 7
60 59 57 56 55 54 52 51 50 49 48 47 48 48 47 46 45 44 43 41 39 37 35 34 32 31 28 26 25 23 22 20 18 17 15 14 14 14 14 15 16 16 16 15 14 14 14 13 14 15 17 19 21 22 24 26 27 29 29 29 28 27 26 25 22 19 17 17 17 15 13 12 10 8 7 6 5 2 2 4 4 5 5 4 5 5 5 5
63 62 60 59 58 56 55 54 53 51 50 48 49 49 49 49 48 47 46 43 41 39 38 36 35 33 30 29 28 26 24 23 21 19 17 16 15 14 14 15 16 16 16 15 14 13 13 13 12 13 15 17 19 20 21 23 25 27 27 27 28 27 26 26 24 21 19 17 16 14 12 12 11 10 9 7 5 3 1 2 2 3 5 5 5 5 5 6
66 65 63 62 60 59 58 57 55 54 52 51 50 49 49 50 50 49 48 46 44 42 40 39 38 36 34 32 30 28 27 26 23 21 19 17 16 15 15 15 15 16 16 16 15 14 13 12 12 12 13 14 16 18 19 20 22 24 25 25 26 26 26 26 25 24 22 19 17 14 11 10 10 9 8 6 5 4 2 1 1 1 3 5 5 5 6 7
68 67 66 64 63 62 60 59 58 57 55 53 52 51 50 50 50 51 50 49 47 45 43 41 41 39 36 33 31 31 31 28 26 24 22 20 18 17 15 15 15 16 17 17 15 14 13 12 11 11 11 12 14 15 17 18 19 20 22 23 25 25 25 25 24 23 23 22 20 17 13 11 10 9 8 7 6 6 5 4 4 3 3 4 4 6 6 6
71 70 68 67 66 64 63 62 61 60 58 56 54 53 52 51 51 51 51 51 49 48 46 44 43 41 38 36 36 35 33 31 29 27 25 22 20 19 17 16 16 16 17 17 16 15 14 12 11 11 10 10 11 13 14 15 16 17 19 21 22 23 24 24 23 22 22 22 21 19 17 15 14 13 12 11 10 9 9 8 7 7 7 6 6 8 7 6
72 71 70 69 68 67 65 64 63 62 61 59 57 55 54 53 52 51 52 52 51 50 48 47 45 43 42 40 39 37 35 34 32 30 28 25 23 22 19 17 17 17 17 18 17 17 15 13 11 10 10 9 9 11 12 13 15 16 17 18 19 21 22 22 21 20 20 20 20 19 19 17 16 16 16 15 14 14 13 13 12 11 11 10 10 10 10 10
71 71 71 71 70 69 68 66 65 64 63 62 60 58 56 55 53 52 53 53 52 51 50 49 47 46 45 44 42 40 38 37 35 33 31 28 26 25 22 20 18 18 18 18 18 18 17 15 13 11 10 9 9 8 10 11 13 14 15 16 17 18 19 19 19 19 18 17 18 18 18 17 17 17 17 17 16 16 16 16 15 14 14 14 13 13 13 13
70 70 71 71 71 70 70 68 67 65 64 64 63 61 59 57 55 54 55 54 53 53 52 51 50 49 48 47 45 43 41 40 38 36 34 31 29 27 25 22 20 19 19 19 19 19 19 17 15 13 11 10 9 8 8 9 11 12 14 15 15 16 16 17 17 18 17 17 16 16 16 15 16 16 17 17 17 17 17 17 16 15 15 15 15 15 14 15
69 70 70 71 71 71 70 70 69 67 66 65 64 63 62 60 58 57 56 55 54 54 53 52 51 51 51 49 47 46 44 43 41 39 37 34 32 31 28 25 23 22 20 20 20 20 20 19 18 15 13 11 10 9 8 8 9 10 12 13 14 14 15 15 16 16 16 16 16 15 15 14 13 15 16 16 16 16 16 17 16 16 16 16 16 16 16 16
69 69 69 70 70 70 70 70 70 69 68 66 65 64 64 62 61 59 58 57 55 55 55 54 53 53 53 52 51 49 47 45 43 41 39 37 35 34 31 28 26 24 22 21 21 21 21 21 20 18 16 14 12 11 9 9 9 9 10 12 13 13 14 14 14 14 14 14 14 15 16 15 13 14 15 15 15 15 16 16 16 16 16 16 16 17 17 18
70 69 69 70 70 70 70 70 70 70 70 68 67 66 65 64 63 62 60 59 58 57 56 55 54 54 54 53 53 51 50 48 46 44 41 39 38 36 33 31 29 27 25 23 22 22 22 22 22 20 18 16 15 13 11 10 10 10 10 11 12 13 13 13 14 14 14 14 14 14 15 16 15 15 17 17 15 15 16 17 17 17 17 17 17 18 18 19
71 70 70 69 69 70 70 70 70 70 70 70 69 67 66 65 64 63 62 62 61 59 57 56 56 56 55 55 54 53 52 50 48 46 44 42 41 39 36 34 32 30 28 26 24 23 24 23 23 22 21 19 17 16 15 13 11 11 11 11 12 13 14 14 14 14 15 15 15 14 15 16 16 16 17 17 17 17 17 18 19 19 19 19 19 19 19 20
73 72 71 70 70 70 70 70 70 70 70 70 70 69 68 66 64 64 64 64 63 61 59 58 58 57 56 56 55 54 53 52 51 49 47 45 43 41 38 35 34 32 31 29 26 25 25 25 24 24 23 21 20 19 17 16 14 13 13 12 12 13 14 14 14 15 15 16 15 15 15 15 15 15 15 17 18 18 18 20 21 21 22 22 22 22 21 21
74 73 72 72 71 70 70 70 70 70 70 70 70 70 70 68 67 66 66 66 65 63 61 60 60 59 57 56 56 56 56 54 52 51 50 47 46 44 40 37 36 35 34 32 29 27 27 27 26 26 25 23 22 21 20 19 18 17 15 15 15 14 14 15 15 15 15 16 16 16 15 15 15 15 15 16 17 18 18 19 21 22 23 23 24 24 23 23
76 75 74 73 72 72 71 70 70 70 70 70 70 70 71 70 70 69 68 68 65 62 63 63 62 60 58 57 58 57 55 54 54 54 51 49 48 46 43 40 38 37 37 35 32 30 29 28 28 27 26 25 24 23 22 21 20 20 19 18 18 17 16 15 15 16 16 17 17 17 16 16 17 17 17 18 18 18 19 19 20 22 23 24 25 26 25 25
79 77 76 74 73 73 72 72 71 70 71 71 70 71 71 71 72 71 71 69 65 63 65 65 63 62 60 60 60 57 56 57 57 55 52 51 51 48 45 43 41 40 40 37 35 34 32 31 30 29 29 27 26 25 24 23 23 23 22 21 21 20 19 18 17 17 17 18 18 19 19 18 18 18 19 19 20 20 20 20 20 21 23 24 25 26 26 27
81 80 79 77 75 75 74 73 72 71 71 71 71 72 72 72 72 72 72 71 68 66 66 66 65 64 62 62 60 58 59 60 57 55 55 55 52 50 48 46 44 44 41 39 39 37 34 33 33 32 31 30 29 27 27 26 25 25 24 23 23 22 22 21 20 19 19 19 19 20 21 20 18 19 20 21 21 21 21 21 21 21 23 24 25 26 27 28
82 82 81 79 78 77 76 75 74 73 72 71 72 72 73 73 72 72 73 72 69 68 70 69 67 65 65 64 62 61 62 59 56 58 58 57 55 53 51 49 48 47 44 42 41 38 37 36 36 35 34 33 32 30 29 28 28 27 26 25 25 24 24 23 23 21 20 20 20 21 22 22 21 20 20 22 23 24 24 24 23 23 23 24 26 26 26 28
84 84 83 82 80 79 78 77 76 74 73 73 72 72 73 73 71 72 73 73 72 73 74 71 68 68 68 67 65 64 62 59 58 60 59 58 57 55 53 51 50 49 46 44 41 40 40 40 39 38 36 36 35 33 32 31 30 30 28 27 27 27 26 26 26 25 23 23 22 22 22 23 23 22 22 22 24 25 25 25 25 25 25 25 26 27 27 27
86 86 85 84 82 81 81 79 78 76 75 74 73 73 73 72 72 73 73 74 76 76 75 72 70 70 69 68 67 66 63 61 60 60 59 59 58 56 54 53 51 50 49 46 43 42 42 43 43 41 39 38 37 36 36 34 33 32 30 29 29 28 28 28 28 28 27 26 25 24 25 25 25 24 24 23 24 26 26 27 27 27 28 27 27 28 27 27
88 88 87 85 84 83 83 82 80 79 77 76 75 73 72 71 72 74 75 78 77 76 76 75 74 72 71 70 69 67 66 63 62 62 61 59 58 58 57 55 54 53 51 48 47 46 45 45 45 43 42 41 39 39 39 38 37 35 33 32 31 30 30 30 30 30 29 29 29 28 27 28 27 26 26 26 26 26 27 28 28 29 29 29 28 28 27 27
90 89 89 87 86 85 84 84 83 81 79 78 76 74 72 71 73 75 79 80 77 75 77 77 77 76 74 73 71 69 68 66 65 64 61 60 59 60 59 58 57 55 52 52 51 49 48 47 45 45 45 44 41 41 41 42 40 37 36 35 33 32 33 33 32 32 32 31 31 31 31 30 30 29 28 28 28 28 28 28 29 30 30 30 30 29 29 29
91 91 91 89 88 87 86 85 84 83 81 79 77 75 73 74 76 78 80 78 74 74 76 77 78 78 77 75 73 70 69 68 66 65 63 61 61 60 60 60 58 56 56 56 53 50 52 50 46 47 48 46 44 44 43 44 42 40 40 38 35 35 35 35 35 34 34 34 34 35 34 34 33 32 31 31 31 30 30 29 29 30 31 31 31 31 31 32
91 92 92 91 90 89 88 87 86 84 83 80 78 76 76 77 79 78 77 75 73 75 77 78 80 80 79 79 76 72 70 69 67 67 65 63 63 62 62 62 60 59 59 58 55 54 56 54 48 48 50 47 47 46 45 46 45 43 43 40 38 38 37 37 37 36 36 36 37 37 37 37 36 35 34 34 34 32 32 32 31 32 33 33 33 34 33 34
89 91 92 93 92 90 89 88 87 86 84 81 79 79 78 79 80 77 75 76 76 77 79 81 83 83 82 82 78 75 74 72 70 69 68 66 65 63 64 64 62 62 62 60 58 58 57 56 52 51 51 49 47 48 48 49 48 46 44 42 41 41 40 39 39 38 38 39 39 39 39 39 38 37 37 37 37 36 34 34 34 34 35 35 35 36 35 36
88 89 91 92 92 91 91 90 89 87 84 82 82 81 81 81 80 78 78 78 77 79 82 84 84 84 84 83 81 78 76 74 72 71 70 68 67 66 65 64 63 64 64 62 61 60 58 59 57 54 52 50 48 50 51 52 50 48 46 45 44 44 43 42 40 40 41 41 41 41 42 41 39 39 39 39 39 39 37 37 36 36 37 38 38 39 38 38
87 87 88 90 91 91 91 90 89 88 87 86 85 84 83 82 81 81 81 79 78 80 83 84 84 84 84 83 82 80 78 76 75 73 72 71 69 67 66 64 64 65 65 64 64 62 61 61 60 55 52 52 52 52 53 53 51 50 49 48 48 48 46 45 43 42 43 44 43 43 44 43 41 41 41 41 41 42 41 40 39 39 40 40 41 41 41 41
85 85 86 88 89 88 90 90 90 90 88 88 87 86 85 83 82 83 82 81 81 82 83 84 84 84 84 84 83 82 81 80 77 74 74 73 70 68 68 67 67 68 67 66 65 64 63 62 61 57 53 54 55 52 53 54 53 53 52 51 52 51 48 47 46 44 46 47 45 44 47 47 43 41 41 41 42 43 44 43 43 43 43 42 43 43 43 43
84 82 84 87 86 86 87 88 89 89 89 89 89 87 85 84 85 85 83 83 84 83 83 85 84 84 84 85 86 86 84 82 79 76 76 75 72 71 71 70 69 69 67 66 66 65 63 62 62 59 56 57 57 53 54 57 55 54 55 54 54 52 49 49 48 48 49 49 46 45 49 50 47 43 42 43 44 44 44 45 45 45 45 45 45 45 46 46
82 81 83 84 84 83 83 85 87 87 88 89 89 87 87 88 88 86 85 86 85 84 84 85 85 84 84 85 87 88 86 83 80 80 79 77 75 75 74 71 70 70 68 68 69 65 63 63 64 62 59 58 57 55 58 59 57 58 58 56 54 53 51 51 51 52 52 51 49 48 51 52 49 47 46 45 45 46 45 46 46 46 46 46 47 47 48 49
81 80 81 82 82 80 80 82 84 85 86 87 87 88 89 90 89 87 87 87 86 84 84 84 84 84 84 85 87 89 87 84 84 84 82 81 80 79 75 71 72 72 70 71 70 64 63 66 65 63 61 59 57 59 62 62 60 60 58 56 54 54 55 54 53 54 54 53 52 52 53 53 51 50 50 48 47 47 46 46 47 48 48 48 48 49 50 51
79 78 79 80 80 78 78 79 81 82 84 85 86 88 89 89 88 88 88 88 86 84 84 84 85 84 84 85 88 89 87 86 88 88 85 85 84 79 73 72 74 74 72 72 69 64 66 69 65 63 63 60 60 63 64 64 62 60 58 57 56 56 58 57 55 55 56 55 54 54 55 56 54 53 52 50 50 49 47 47 49 49 49 49 49 51 52 52
77 76 76 77 77 76 76 77 78 80 81 83 84 86 88 88 88 88 88 88 86 84 83 85 85 84 85 87 88 88 88 89 92 90 86 86 83 77 73 74 77 76 73 72 70 67 70 70 64 64 66 63 63 66 66 64 62 61 60 59 59 59 59 58 56 57 59 58 57 56 56 57 57 56 54 52 52 51 49 49 50 50 51 50 50 52 53 54
74 73 74 75 75 75 74 73 75 77 78 80 82 83 85 87 88 89 89 87 85 84 84 85 85 85 86 87 88 88 89 91 93 90 86 87 85 79 77 79 79 77 74 73 72 70 71 68 65 67 68 65 66 68 66 64 64 64 63 62 61 60 59 58 57 57 61 61 60 59 58 58 60 59 57 55 53 52 51 51 51 51 52 53 52 53 54 55
71 71 71 72 72 73 72 71 73 76 76 78 79 81 84 87 88 89 88 86 85 85 85 85 86 86 86 87 88 90 91 93 94 92 89 89 87 81 79 80 80 78 76 76 74 71 70 68 68 69 69 67 68 68 65 65 67 68 66 64 63 61 60 60 58 59 62 64 64 62 59 60 62 61 59 57 55 54 53 53 53 53 54 54 55 55 56 57
70 68 68 69 70 71 70 70 72 74 75 75 77 79 83 86 87 87 86 86 87 87 86 86 86 86 86 87 89 90 91 92 93 94 93 92 88 83 80 82 81 80 80 79 77 73 70 70 71 70 69 69 70 69 67 68 71 71 68 66 64 61 61 61 62 62 64 65 66 64 61 61 63 62 60 60 58 56 56 55 54 54 56 57 57 57 58 59
69 67 67 68 68 68 69 69 70 71 72 73 74 76 80 83 84 85 85 87 87 85 85 85 85 85 87 90 91 91 91 91 93 95 95 94 91 87 85 84 83 83 83 81 78 74 72 73 73 70 70 72 71 70 69 72 74 72 68 67 64 63 63 65 66 66 65 66 67 66 64 64 63 62 62 62 60 59 58 57 56 56 58 59 59 59 61 62
68 67 66 66 66 67 68 68 69 70 70 71 71 73 76 79 81 84 86 86 85 84 84 84 84 87 90 91 91 91 91 92 93 95 96 96 94 91 90 88 86 86 85 83 80 77 76 76 73 70 72 74 72 71 73 75 75 71 69 68 66 65 66 68 69 68 66 67 68 67 66 65 63 63 63 63 62 61 60 59 58 58 60 61 61 62 63 64
Wind_Direction
240 241 241 240 239 239 240 240 243 248 253 254 256 260 265 273 282 291 301 314 325 334 341 346 352 358 4 9 14 18 20 21 21 20 20 22 23 25 28 30 31 32 32 33 33 32 33 33 34 34 35 35 35 36 38 40 39 37 66 146 149 157 138 133 168 180 185 187 172 159 152 144 141 142 138 131 124 116 110 109 113 119 124 136 150 159 161 167
240 241 242 243 242 241 240 241 242 245 250 253 256 259 262 268 274 280 287 297 309 318 327 335 342 349 355 0 7 12 16 18 19 18 18 19 21 22 25 28 30 31 31 31 32 32 32 32 32 32 33 34 34 33 35 37 40 44 43 97 124 135 126 134 178 195 206 203 186 168 156 148 142 137 138 136 123 115 111 113 114 115 116 123 129 125 124 131
239 240 241 243 244 244 243 242 242 243 247 251 254 256 259 264 270 274 280 285 294 303 312 322 331 338 347 352 358 5 11 15 16 16 16 16 18 20 22 24 28 29 30 30 30 31 31 31 31 31 32 33 33 31 33 34 37 43 40 50 81 108 123 154 191 204 205 209 205 185 166 153 144 139 141 140 129 123 119 120 122 120 121 130 134 131 129 133
240 240 240 242 243 245 245 244 243 244 246 248 251 254 256 261 266 270 274 278 283 290 299 307 317 327 336 343 349 357 4 10 12 14 14 14 14 17 19 21 24 27 28 29 29 30 30 30 30 30 31 32 32 31 32 33 35 40 38 41 51 73 114 151 190 211 213 210 213 202 182 160 149 144 144 140 133 130 127 128 128 123 124 135 152 158 148 152
240 240 240 241 242 243 244 245 245 245 246 247 249 251 253 257 262 266 270 274 278 281 288 295 304 314 324 332 339 347 356 3 8 11 12 12 12 13 16 18 21 24 27 28 27 28 29 29 29 29 30 31 31 32 32 33 35 40 40 40 48 60 88 128 165 203 218 221 223 216 196 168 153 144 147 148 140 134 133 137 131 120 124 123 272 258 196 192
239 240 240 241 242 242 243 244 245 246 246 247 249 250 251 253 257 262 266 270 274 276 280 286 293 301 311 320 329 336 346 355 2 7 8 8 10 10 12 15 18 21 24 26 26 27 27 27 28 29 30 30 31 32 33 34 35 39 40 39 44 56 73 89 112 168 209 222 232 229 209 180 152 131 148 154 141 142 148 158 146 135 216 272 304 326 332 322
239 240 240 240 241 242 242 243 244 245 246 247 249 250 250 252 254 257 262 266 270 273 276 280 285 291 300 309 318 326 335 347 355 1 4 4 6 8 8 11 14 18 21 24 25 25 25 26 27 28 29 29 31 32 33 35 36 37 38 38 40 47 58 65 67 80 199 219 229 233 221 190 145 121 222 252 273 271 281 291 295 304 309 313 315 325 328 329
238 239 240 240 241 241 242 243 243 244 245 247 248 250 250 251 252 254 258 262 265 269 272 275 279 284 290 299 307 316 324 336 346 353 359 0 1 4 6 7 10 14 18 21 23 24 24 24 25 27 28 28 29 32 33 35 36 37 37 37 39 43 48 53 54 51 135 219 226 228 219 193 155 131 211 253 283 292 298 300 304 309 310 312 313 320 323 325
237 238 239 240 240 241 242 242 243 243 244 245 247 249 250 251 252 252 254 257 262 265 268 271 275 279 284 289 297 306 314 324 335 344 351 356 357 358 1 3 5 9 14 17 20 23 23 23 23 25 26 27 28 31 33 34 36 37 37 37 40 42 43 46 49 51 67 195 221 223 212 195 178 156 193 257 283 293 303 302 301 304 306 308 312 316 318 320
236 237 238 239 240 241 241 242 242 242 243 244 246 248 249 250 251 252 252 255 258 261 264 267 270 274 278 282 289 296 304 313 323 333 342 348 352 353 355 358 1 4 9 13 17 20 22 21 22 23 24 26 28 30 32 34 35 37 37 38 41 44 43 44 48 55 69 103 172 202 199 194 185 164 169 284 295 288 295 301 300 304 307 309 311 314 317 320
237 237 237 238 239 240 241 241 242 242 242 243 245 247 248 249 250 251 252 253 255 258 260 263 266 270 273 276 281 287 295 304 312 322 332 340 345 347 348 351 355 359 3 8 12 16 19 20 20 21 22 25 27 29 31 33 35 37 37 37 41 44 46 46 48 57 65 71 73 78 105 143 156 155 159 262 286 292 304 304 302 305 306 308 311 314 317 320
238 238 237 237 238 239 240 241 241 241 241 242 244 245 246 247 249 250 251 252 253 255 257 260 262 265 268 272 275 281 287 294 303 312 320 329 337 341 342 344 349 354 357 2 7 12 16 18 19 19 20 23 25 27 30 32 34 37 39 39 40 43 46 46 48 55 56 55 53 49 54 69 97 137 207 255 284 320 328 307 303 309 308 310 312 313 314 313
238 238 238 238 238 238 239 240 241 241 241 241 243 244 245 246 248 249 251 251 251 254 256 257 259 261 264 267 271 275 281 286 293 302 310 319 327 333 336 338 341 347 351 355 1 7 12 14 16 18 19 20 23 25 28 32 34 36 39 40 41 42 43 44 48 52 47 45 47 41 44 57 72 66 350 302 305 333 315 309 316 320 314 311 310 308 304 302
239 238 238 238 238 238 239 239 240 240 240 241 242 243 244 245 246 248 249 250 250 252 254 255 257 259 260 264 267 270 274 279 285 292 300 308 317 324 329 332 334 339 344 348 353 360 6 11 13 16 18 19 21 23 25 30 32 35 38 40 42 43 43 43 48 51 46 46 49 41 42 52 59 41 26 26 32 11 299 312 320 316 311 309 307 303 300 299
239 239 238 238 238 238 239 239 239 239 239 240 241 242 243 244 245 246 248 249 249 250 252 254 255 256 259 261 264 266 270 274 278 284 291 298 306 315 321 326 328 330 336 341 345 351 358 4 7 12 17 19 20 21 23 26 30 34 37 38 41 43 43 43 46 49 48 49 53 49 45 50 52 44 37 32 28 24 308 305 305 305 315 323 317 310 312 316
239 239 239 238 238 238 239 239 239 239 239 239 240 241 242 243 244 245 247 248 248 249 250 252 254 255 257 257 259 263 266 269 273 277 283 289 296 304 313 318 321 323 327 333 337 342 349 357 1 4 12 18 19 20 21 23 27 31 34 37 41 42 43 43 44 46 46 48 52 54 49 46 48 45 38 38 37 31 329 279 284 313 328 338 343 339 341 342
238 239 239 239 238 238 238 239 239 239 239 239 239 240 241 242 243 244 245 246 247 248 249 250 252 253 253 256 259 262 263 265 269 272 276 282 288 294 302 308 313 316 319 324 330 333 339 348 353 356 4 14 18 18 19 22 26 28 31 36 40 41 42 43 42 43 44 46 48 53 53 44 44 47 37 34 38 33 40 6 13 40 350 347 347 342 348 348
238 238 239 239 239 238 238 238 239 239 239 239 239 239 240 241 243 244 245 245 246 247 248 248 250 252 253 256 258 258 259 262 265 268 271 275 280 285 292 299 304 308 311 315 321 325 329 336 343 348 353 5 14 15 15 19 23 26 28 32 37 39 40 41 41 41 43 45 47 51 54 47 42 43 33 25 22 19 23 15 12 25 9 2 344 343 353 346
237 237 238 238 239 239 238 238 238 239 239 239 239 239 239 240 242 243 244 245 245 246 247 248 249 251 252 252 253 255 258 260 262 264 267 270 274 278 283 288 295 299 303 307 312 316 320 323 330 337 342 351 5 11 11 13 18 22 25 29 34 37 38 38 38 40 41 42 44 48 49 49 47 46 40 33 31 30 32 27 21 19 15 11 356 355 3 348
236 237 237 237 238 239 239 238 238 238 238 238 239 239 239 239 240 242 244 244 245 245 245 247 248 249 250 251 252 254 256 258 260 261 264 267 270 272 276 280 285 291 295 300 303 308 312 313 316 324 331 336 351 2 5 7 10 15 19 24 28 32 36 36 35 36 38 39 41 43 45 47 46 46 46 42 39 39 41 41 37 33 30 27 21 15 15 7
236 236 237 237 237 237 238 238 238 238 238 238 238 239 239 239 240 241 243 244 245 245 245 246 247 248 249 250 251 252 254 256 258 260 262 264 266 269 271 273 276 282 287 292 295 299 303 306 306 310 317 323 333 347 356 359 3 7 12 17 20 25 29 32 33 34 34 34 35 37 39 42 42 41 42 41 39 38 38 40 41 39 36 34 33 29 24 19
236 236 237 237 236 237 237 237 238 238 238 238 238 238 238 239 239 240 241 243 244 244 245 245 246 247 248 249 250 251 252 254 256 257 259 261 263 266 267 268 270 275 280 284 288 291 295 299 300 300 304 310 317 327 338 346 353 360 4 8 12 16 19 22 26 29 30 30 30 30 30 34 38 36 33 33 33 33 32 33 35 36 35 32 30 30 27 22
235 235 236 237 237 236 236 236 237 237 238 237 238 238 238 238 238 239 240 242 243 244 244 244 245 246 247 249 250 251 251 252 254 255 257 259 261 263 264 265 266 268 273 277 280 284 288 292 295 295 295 299 304 310 318 326 338 348 354 357 0 3 6 10 15 18 23 26 26 24 22 22 28 29 27 25 23 24 24 25 26 28 29 28 24 23 22 21
235 234 235 236 236 236 236 236 236 236 237 237 237 238 238 238 238 238 240 241 242 243 244 244 244 245 246 248 249 250 250 251 253 254 256 257 259 261 262 263 263 264 267 270 274 278 281 285 289 292 291 291 295 299 304 310 318 330 339 344 347 351 354 358 3 5 10 17 21 22 20 15 15 19 20 16 11 10 11 13 14 15 18 19 17 16 14 14
237 235 234 234 235 236 236 236 235 235 236 236 237 237 237 237 238 238 239 240 241 242 243 243 244 244 245 246 248 249 250 250 252 253 254 255 257 259 261 261 261 262 263 264 268 271 275 279 283 287 288 288 289 292 296 299 304 311 320 327 332 335 339 345 351 353 358 4 10 15 17 14 11 12 14 11 4 359 358 360 360 1 4 5 7 7 5 5
237 236 235 235 234 235 235 235 235 235 235 235 236 236 237 237 237 238 238 238 239 241 242 243 244 244 244 245 246 247 249 250 251 252 253 254 255 257 258 259 259 260 259 260 263 266 269 273 277 281 284 286 287 288 290 292 296 300 304 309 315 319 324 332 338 342 348 354 358 3 8 11 9 8 8 6 3 1 358 355 353 352 354 356 357 358 357 356
236 236 235 235 235 234 235 235 235 235 235 235 235 235 236 237 237 237 237 238 238 239 240 242 243 244 244 245 246 247 248 249 250 251 252 252 253 254 255 257 257 257 257 258 259 261 265 268 272 275 279 282 284 285 286 288 291 293 296 298 301 304 310 317 325 331 338 342 346 354 359 3 4 3 359 357 360 2 2 359 356 352 351 353 355 354 353 352
236 235 235 235 235 235 235 234 234 234 234 234 234 234 235 236 236 237 237 237 238 238 239 241 242 243 244 245 246 246 246 247 249 250 251 251 252 254 254 255 256 256 256 256 256 257 260 264 266 269 273 276 279 282 284 286 288 290 293 294 295 297 299 304 311 316 324 329 334 341 348 352 353 353 350 350 353 356 358 360 358 354 351 352 353 354 353 351
236 236 235 234 234 235 235 234 234 233 234 234 234 234 234 234 235 235 237 238 238 238 238 240 241 242 243 244 245 245 247 248 249 249 250 251 252 252 252 253 254 255 255 255 255 254 256 259 262 264 268 271 274 277 279 281 284 286 288 291 293 295 297 299 302 306 312 317 321 327 334 341 344 344 344 345 346 348 350 354 355 353 350 350 351 352 351 350
236 236 235 234 234 234 234 234 234 233 233 234 233 233 233 233 234 234 236 237 237 236 237 239 240 241 242 243 244 245 247 247 247 248 249 250 250 251 251 252 253 254 254 255 254 253 254 256 259 260 262 265 268 271 274 276 278 280 282 286 288 292 295 299 301 304 306 308 312 317 322 328 334 337 337 338 339 341 343 346 348 348 347 347 347 348 348 348
236 236 236 235 234 234 234 234 234 233 233 233 233 233 233 233 233 233 235 236 236 236 237 238 238 239 240 242 243 244 245 245 247 248 249 249 250 250 251 251 252 253 253 253 252 252 253 254 256 257 259 261 264 266 269 271 273 275 277 280 283 286 290 294 297 301 304 306 309 312 313 315 322 327 329 331 332 333 335 336 340 342 343 344 344 345 345 344
236 236 236 235 234 234 234 234 234 233 232 233 233 233 234 233 233 233 234 235 235 236 237 237 238 238 239 240 241 242 243 244 246 247 247 248 248 249 249 249 250 251 251 251 253 254 253 253 254 255 256 258 260 262 265 267 269 271 273 276 278 281 284 288 291 295 299 302 305 307 308 308 312 316 320 324 325 326 329 331 333 336 337 340 341 341 342 342
236 236 236 235 235 234 234 234 234 233 232 232 232 233 234 234 233 233 234 234 233 234 236 236 237 237 238 239 240 241 243 243 244 245 246 247 247 248 248 248 249 250 251 252 254 254 253 252 252 253 254 256 257 259 261 263 266 268 270 273 275 278 281 284 286 289 293 296 300 303 305 305 307 309 311 316 317 320 323 326 328 330 333 335 337 337 338 338
235 235 235 235 235 234 234 234 234 234 233 232 232 232 233 234 234 234 234 234 233 234 235 236 236 237 238 238 239 240 242 242 244 245 246 247 248 249 249 249 250 250 251 252 253 253 252 252 252 252 253 254 255 257 259 260 262 264 267 270 272 275 279 281 284 287 289 292 295 298 301 303 304 305 307 309 311 314 317 321 324 326 328 330 332 334 332 333
235 235 235 235 234 234 234 234 234 234 233 233 232 232 232 233 234 234 234 234 233 233 234 235 236 236 237 238 238 239 240 241 242 244 245 246 247 248 249 249 249 250 250 251 252 252 251 251 252 252 252 253 254 255 257 258 260 263 265 267 269 273 276 278 281 284 287 290 292 294 296 298 300 303 305 306 307 309 312 316 320 322 324 326 328 330 328 326
236 236 235 235 234 234 234 234 234 234 233 233 233 232 232 232 233 234 234 233 232 232 233 234 235 236 236 237 238 238 239 240 241 242 244 245 246 247 248 248 248 248 249 250 250 250 252 252 252 253 252 252 253 254 256 257 259 262 263 265 268 271 274 276 280 283 286 288 290 291 292 294 297 300 303 305 306 307 308 311 314 316 319 320 322 325 323 321
235 236 236 235 234 234 234 234 234 234 233 233 233 233 232 233 233 233 234 234 233 234 235 235 235 236 236 237 238 237 238 239 240 242 243 244 246 247 248 248 248 249 249 250 249 250 252 252 251 253 253 252 253 253 255 257 258 260 262 264 267 270 272 276 279 282 285 288 289 290 291 292 294 297 301 303 303 304 305 306 308 310 313 315 316 319 319 319
235 236 236 235 235 234 234 234 234 234 233 233 233 232 232 233 233 233 235 235 234 234 235 235 236 236 236 236 236 236 238 238 239 241 242 242 244 245 247 248 248 248 249 249 249 249 251 251 249 251 253 253 253 254 255 257 257 258 260 263 265 268 271 274 277 281 284 287 288 289 290 291 293 296 299 299 300 302 303 303 305 306 308 310 312 314 315 317
236 235 235 235 235 234 234 234 234 234 234 233 233 232 232 233 234 233 234 234 233 233 234 234 234 234 235 236 236 236 236 237 237 239 240 241 242 244 245 246 246 247 247 248 248 248 250 250 248 249 252 253 254 255 255 256 257 257 259 261 263 266 269 271 275 279 281 284 285 287 288 289 292 295 295 295 297 300 302 303 304 305 306 308 309 311 313 315
236 236 236 235 235 234 234 234 234 234 233 233 232 232 232 233 233 233 233 232 232 233 233 233 233 233 234 235 236 236 236 237 237 238 239 240 241 242 244 245 246 247 247 247 247 248 249 250 248 248 251 253 254 255 254 255 256 258 259 260 262 264 266 269 272 276 279 281 282 284 285 286 290 292 292 294 296 298 300 302 303 304 305 307 308 309 311 313
236 236 236 235 234 234 234 234 234 233 233 232 232 232 232 232 233 233 233 232 232 232 233 234 234 234 234 235 235 236 236 237 237 238 239 240 241 242 244 245 246 247 247 247 247 247 248 249 249 248 249 253 253 254 255 256 257 258 258 259 260 262 264 267 270 273 276 278 280 283 285 285 287 289 291 294 295 296 299 301 303 303 304 305 306 307 309 311
235 236 236 236 234 234 234 234 233 233 233 232 232 232 232 232 233 233 233 232 232 232 233 234 234 234 234 235 235 235 235 236 236 237 239 240 241 242 243 244 245 246 247 247 247 248 247 249 250 249 249 252 253 254 257 258 257 258 259 259 260 261 263 266 269 272 274 276 278 282 284 284 285 287 290 293 293 295 297 299 302 303 303 304 304 306 307 308
235 235 236 236 234 234 234 234 233 233 232 232 232 232 232 232 232 233 232 232 231 231 232 233 234 234 234 234 234 234 235 235 236 236 238 239 239 240 242 243 245 246 247 248 249 249 249 250 251 250 249 251 253 254 256 257 258 258 258 258 260 261 263 266 269 271 272 274 277 280 282 283 285 286 288 290 291 292 294 297 299 301 302 303 304 305 306 306
234 235 236 236 235 234 233 233 233 232 232 232 232 232 231 231 232 232 232 232 232 231 231 232 233 233 233 233 234 234 234 234 235 236 237 238 239 240 240 242 244 246 247 248 248 249 249 249 250 251 249 250 252 254 256 257 257 257 258 259 261 264 265 265 267 269 271 274 276 278 279 281 284 286 287 288 289 291 293 295 297 298 300 301 302 303 303 305
233 234 235 236 235 234 233 233 233 232 232 231 231 231 231 231 232 232 232 232 232 231 232 232 233 233 233 234 234 235 234 234 235 235 236 237 238 238 239 241 244 245 246 247 248 249 250 249 250 251 251 251 252 254 255 256 256 258 260 261 262 263 265 265 266 267 269 272 274 276 278 280 283 284 285 287 288 289 291 293 294 296 298 299 300 300 301 303
232 233 235 236 235 234 233 233 232 232 231 231 230 230 230 231 231 232 232 233 232 231 231 232 232 233 233 233 234 234 234 233 234 235 235 236 237 238 239 242 244 245 245 247 249 249 250 250 250 251 252 251 252 253 254 255 257 258 260 262 262 262 264 265 266 268 269 270 272 274 276 279 281 282 283 286 288 289 290 291 292 294 296 297 298 298 300 302
230 232 234 235 235 234 233 232 232 231 231 231 230 230 230 230 230 231 231 232 232 231 230 231 231 231 232 233 234 234 234 233 234 235 235 237 238 238 240 242 243 244 245 247 248 248 249 250 251 252 252 251 252 253 254 256 258 259 260 261 262 262 263 265 266 269 270 271 271 272 274 277 279 280 282 285 287 289 291 291 291 293 294 295 296 297 299 301
229 230 232 234 235 235 234 233 232 231 230 230 229 229 229 229 229 230 230 230 231 231 230 230 231 231 231 232 233 234 233 233 234 235 235 237 238 237 238 241 243 244 245 246 247 248 250 251 251 251 252 252 252 253 255 257 259 259 259 260 261 262 264 265 266 268 269 270 271 271 272 275 277 279 281 283 286 290 291 290 290 291 293 294 294 295 297 299
227 229 231 233 234 234 234 233 232 231 229 229 229 228 228 228 228 229 230 229 230 230 229 229 229 230 230 231 232 233 233 232 233 234 234 236 237 237 238 241 243 244 244 245 246 247 249 251 251 251 252 252 253 254 256 258 259 259 259 259 260 262 264 265 266 266 267 269 269 270 271 274 276 278 281 283 286 288 290 289 289 290 291 292 293 295 296 298
226 227 229 231 232 233 233 232 232 231 229 229 229 228 228 228 228 228 229 229 229 229 228 228 229 229 229 230 231 232 233 233 233 233 233 234 235 235 237 240 242 242 243 244 244 245 247 248 249 250 252 252 253 254 255 256 258 258 258 259 260 262 264 265 265 264 265 267 268 270 271 272 274 278 281 283 285 287 288 288 288 289 290 291 292 294 296 297
225 225 227 229 231 233 233 232 232 231 230 228 228 228 229 229 228 228 228 228 229 229 228 228 228 228 228 229 230 231 232 232 232 233 233 233 234 234 235 237 239 241 242 243 244 245 245 247 248 249 250 251 252 253 254 255 256 256 258 259 261 262 263 263 263 263 264 266 268 269 270 271 274 278 280 282 284 286 287 288 288 288 289 291 293 294 296 297
223 224 226 228 230 232 232 232 232 231 230 229 228 228 229 228 228 227 227 228 228 228 228 227 227 228 228 229 230 231 231 232 232 232 233 233 233 234 235 236 238 240 241 242 243 243 244 245 247 249 250 251 252 252 253 254 255 256 257 258 259 260 261 263 263 264 265 266 267 268 270 271 274 277 279 281 283 285 286 287 287 287 288 290 292 294 295 297
Height
11020 11021 11022 11023 11024 11026 11027 11028 11028 11029 11029 11030 11031 11031 11031 11031 11031 11031 11031 11031 11031 11030 11029 11028 11027 11026 11025 11024 11023 11022 11020 11019 11018 11016 11014 11013 11011 11010 11008 11007 11005 11004 11002 11000 10998 10995 10993 10991 10989 10987 10985 10983 10981 10979 10978 10977 10977 10975 10974 10974 10974 10974 10973 10973 10974 10974 10975 10976 10976 10977 10977 10976 10977 10977 10977 10978 10978 10978 10978 10979 10980 10981 10982 10982 10983 10984 10984 10984
11018 11019 11020 11021 11022 11023 11025 11026 11027 11027 11028 11029 11030 11030 11031 11031 11031 11031 11031 11031 11031 11030 11029 11029 11028 11027 11026 11025 11024 11023 11021 11020 11019 11017 11015 11014 11013 11011 11010 11008 11007 11005 11003 11001 10999 10997 10995 10993 10991 10989 10987 10985 10982 10981 10979 10978 10977 10975 10974 10973 10973 10973 10973 10974 10975 10975 10975 10976 10976 10976 10976 10976 10976 10977 10977 10978 10978 10978 10979 10979 10980 10981 10982 10982 10983 10983 10984 10984
11015 11016 11017 11018 11020 11021 11022 11024 11025 11026 11026 11027 11028 11029 11030 11030 11030 11030 11031 11031 11031 11030 11030 11029 11028 11027 11026 11025 11024 11023 11022 11021 11020 11018 11017 11015 11014 11012 11011 11010 11008 11006 11005 11003 11001 10999 10998 10996 10994 10992 10989 10986 10984 10982 10979 10978 10977 10975 10974 10973 10972 10972 10973 10974 10975 10976 10976 10976 10976 10976 10976 10976 10976 10976 10977 10978 10978 10979 10979 10980 10980 10981 10982 10983 10983 10983 10983 10984
11012 11013 11015 11016 11017 11018 11020 11021 11022 11024 11025 11025 11026 11027 11029 11029 11030 11030 11030 11030 11031 11030 11030 11029 11028 11027 11027 11026 11025 11024 11023 11022 11021 11019 11018 11016 11015 11013 11012 11011 11009 11008 11006 11004 11003 11001 10999 10998 10996 10994 10990 10988 10986 10984 10981 10979 10977 10975 10974 10973 10972 10972 10973 10974 10975 10976 10976 10976 10977 10977 10977 10976 10976 10976 10977 10978 10978 10979 10979 10980 10981 10982 10982 10983 10983 10983 10983 10984
11009 11010 11011 11013 11014 11016 11017 11019 11020 11021 11022 11023 11024 11025 11027 11028 11028 11029 11029 11029 11030 11030 11030 11029 11028 11028 11027 11026 11025 11024 11023 11022 11021 11020 11019 11017 11016 11014 11013 11012 11010 11009 11007 11006 11004 11003 11001 10999 10998 10995 10993 10991 10989 10986 10983 10981 10979 10976 10975 10974 10973 10973 10973 10974 10975 10976 10976 10976 10977 10977 10977 10977 10977 10977 10978 10978 10978 10978 10979 10980 10981 10982 10983 10983 10983 10983 10983 10983
11005 11006 11008 11010 11011 11013 11014 11016 11017 11019 11020 11021 11022 11023 11025 11026 11027 11027 11027 11028 11028 11029 11029 11029 11028 11028 11027 11026 11026 11025 11024 11023 11022 11021 11020 11018 11017 11015 11014 11013 11011 11010 11009 11007 11006 11004 11003 11001 10999 10997 10995 10993 10991 10988 10986 10983 10980 10978 10977 10976 10975 10974 10974 10974 10974 10975 10975 10976 10977 10978 10978 10977 10978 10978 10978 10978 10978 10978 10979 10980 10981 10982 10982 10983 10983 10983 10983 10983
11001 11003 11004 11006 11008 11009 11011 11013 11015 11016 11017 11018 11019 11020 11022 11024 11025 11025 11026 11026 11027 11028 11028 11028 11028 11027 11027 11026 11026 11025 11024 11023 11022 11021 11020 11019 11017 11016 11015 11014 11012 11011 11010 11009 11007 11006 11004 11002 11000 10999 10997 10995 10993 10990 10988 10985 10983 10981 10980 10978 10976 10975 10974 10973 10974 10974 10975 10976 10977 10978 10978 10978 10979 10978 10978 10978 10979 10979 10979 10980 10981 10981 10982 10982 10982 10982 10982 10982
10997 10999 11000 11002 11004 11006 11007 11009 11011 11013 11014 11016 11016 11017 11020 11021 11022 11023 11024 11024 11025 11026 11027 11027 11027 11027 11027 11026 11025 11025 11024 11023 11022 11022 11021 11019 11018 11017 11016 11015 11013 11012 11011 11010 11009 11007 11005 11004 11002 11000 10999 10997 10995 10992 10990 10987 10985 10983 10981 10980 10977 10975 10974 10973 10974 10974 10975 10975 10977 10978 10978 10979 10980 10980 10980 10979 10979 10980 10980 10980 10981 10981 10981 10981 10981 10981 10981 10981
10993 10995 10996 10998 11000 11001 11003 11005 11008 11010 11012 11013 11013 11014 11017 11018 11019 11021 11022 11022 11023 11024 11025 11026 11026 11026 11026 11025 11025 11024 11024 11023 11022 11022 11021 11020 11018 11017 11016 11015 11014 11013 11012 11011 11010 11008 11007 11005 11003 11001 11000 10998 10996 10994 10992 10990 10987 10985 10983 10981 10978 10975 10974 10974 10974 10975 10975 10975 10976 10978 10979 10980 10980 10980 10981 10980 10980 10980 10981 10981 10981 10981 10981 10981 10981 10981 10981 10980
10989 10990 10992 10994 10995 10997 10999 11001 11004 11006 11008 11010 11010 11011 11014 11015 11016 11018 11019 11020 11021 11022 11023 11024 11025 11025 11025 11024 11024 11024 11023 11023 11022 11021 11021 11020 11019 11017 11016 11016 11015 11014 11013 11012 11010 11009 11008 11006 11004 11003 11001 10999 10997 10995 10993 10992 10989 10986 10985 10983 10980 10977 10976 10975 10975 10976 10976 10976 10977 10977 10978 10979 10980 10980 10980 10980 10980 10981 10981 10981 10981 10981 10980 10980 10980 10980 10980 10980
10985 10986 10988 10989 10991 10993 10995 10997 10999 11002 11004 11006 11007 11008 11010 11012 11013 11014 11016 11018 11019 11020 11021 11022 11023 11023 11023 11023 11023 11023 11022 11022 11022 11021 11020 11020 11019 11018 11016 11016 11015 11014 11013 11012 11011 11010 11009 11007 11006 11004 11002 11000 10999 10997 10995 10993 10990 10988 10986 10984 10982 10980 10978 10978 10977 10977 10976 10976 10977 10977 10978 10979 10979 10980 10980 10980 10981 10980 10980 10981 10981 10981 10980 10980 10980 10980 10979 10979
10980 10982 10984 10985 10987 10988 10990 10992 10995 10998 11000 11003 11003 11005 11007 11008 11010 11011 11012 11015 11017 11017 11019 11020 11021 11021 11021 11022 11022 11022 11021 11021 11021 11020 11020 11019 11019 11018 11016 11016 11015 11014 11014 11013 11012 11011 11009 11008 11007 11005 11003 11001 11000 10998 10996 10994 10992 10990 10988 10986 10984 10982 10981 10980 10979 10978 10977 10976 10976 10977 10978 10978 10979 10979 10980 10981 10980 10979 10979 10981 10981 10980 10980 10980 10980 10980 10979 10979
10975 10977 10979 10981 10982 10984 10986 10988 10990 10993 10996 10998 11000 11001 11004 11005 11006 11007 11009 11011 11013 11015 11016 11017 11018 11019 11020 11020 11020 11020 11020 11020 11020 11020 11019 11019 11018 11017 11016 11015 11015 11014 11014 11013 11013 11012 11010 11009 11008 11006 11004 11003 11001 10999 10997 10996 10994 10992 10990 10987 10986 10984 10983 10982 10981 10980 10979 10978 10977 10977 10978 10978 10978 10979 10980 10981 10980 10980 10980 10980 10980 10980 10980 10980 10980 10980 10980 10979
10970 10972 10974 10976 10978 10980 10981 10984 10986 10988 10991 10994 10995 10997 11000 11001 11003 11004 11005 11008 11010 11012 11013 11014 11016 11017 11017 11018 11018 11019 11019 11019 11019 11019 11019 11018 11018 11017 11016 11015 11014 11014 11014 11013 11013 11012 11011 11010 11009 11007 11006 11004 11002 11000 10998 10997 10996 10993 10991 10989 10987 10986 10985 10984 10983 10981 10981 10980 10979 10979 10979 10979 10979 10979 10980 10980 10981 10981 10981 10981 10980 10979 10979 10979 10980 10980 10979 10979
10964 10967 10969 10971 10973 10975 10977 10979 10981 10984 10987 10989 10991 10993 10995 10997 10999 11000 11001 11004 11006 11008 11010 11011 11012 11013 11015 11016 11016 11017 11017 11017 11018 11018 11018 11017 11017 11016 11016 11015 11014 11013 11013 11013 11013 11012 11011 11010 11009 11008 11007 11005 11003 11002 11000 10998 10997 10994 10992 10991 10989 10987 10987 10986 10984 10983 10983 10982 10982 10982 10982 10981 10980 10980 10980 10980 10981 10981 10981 10981 10980 10979 10979 10979 10979 10979 10979 10978
10958 10961 10963 10966 10968 10970 10972 10974 10976 10979 10982 10984 10986 10988 10991 10993 10995 10996 10998 11000 11002 11004 11007 11008 11009 11011 11013 11013 11013 11015 11015 11015 11016 11016 11016 11016 11016 11016 11015 11014 11013 11013 11012 11012 11012 11012 11011 11010 11009 11008 11007 11006 11004 11003 11001 11000 10998 10996 10994 10992 10990 10989 10988 10987 10986 10985 10984 10984 10983 10984 10983 10982 10981 10981 10981 10981 10982 10982 10981 10980 10980 10979 10978 10978 10979 10979 10978 10977
10952 10954 10957 10960 10962 10965 10967 10970 10972 10974 10977 10979 10981 10984 10986 10988 10990 10992 10993 10996 10998 11000 11003 11004 11005 11007 11008 11009 11011 11012 11012 11013 11014 11014 11015 11015 11015 11015 11015 11014 11013 11012 11011 11011 11012 11011 11011 11010 11009 11008 11008 11006 11005 11004 11003 11001 11000 10998 10996 10994 10992 10991 10990 10988 10988 10987 10986 10985 10984 10984 10984 10983 10982 10982 10982 10982 10983 10982 10982 10981 10980 10979 10978 10979 10980 10979 10977 10977
10945 10948 10951 10953 10956 10959 10962 10965 10967 10969 10972 10974 10976 10979 10981 10983 10985 10987 10989 10991 10994 10996 10998 11001 11001 11003 11005 11008 11009 11009 11009 11011 11012 11012 11013 11013 11014 11014 11014 11013 11012 11012 11011 11010 11011 11011 11011 11010 11009 11008 11008 11007 11006 11005 11004 11003 11002 11000 10998 10996 10994 10993 10992 10990 10989 10989 10988 10987 10986 10985 10985 10984 10983 10982 10983 10983 10983 10983 10982 10981 10980 10980 10979 10980 10980 10979 10978 10977
10938 10941 10944 10947 10949 10952 10956 10959 10961 10964 10966 10969 10971 10974 10976 10978 10980 10982 10984 10987 10989 10992 10994 10996 10998 11000 11002 11004 11004 11005 11007 11008 11009 11010 11011 11011 11012 11012 11013 11012 11012 11011 11010 11009 11009 11010 11010 11010 11009 11009 11008 11007 11006 11005 11004 11003 11003 11001 11000 10997 10996 10995 10993 10991 10991 10990 10989 10988 10988 10987 10986 10985 10984 10983 10983 10983 10983 10983 10982 10982 10980 10980 10979 10979 10979 10978 10978 10977
10931 10934 10937 10940 10943 10946 10949 10953 10956 10958 10961 10963 10965 10968 10971 10973 10975 10978 10980 10981 10984 10987 10990 10992 10994 10996 10997 10999 11000 11002 11003 11005 11006 11007 11008 11009 11010 11010 11011 11011 11011 11010 11009 11008 11008 11008 11009 11009 11009 11008 11008 11007 11006 11005 11004 11003 11003 11002 11000 10998 10996 10995 10993 10993 10992 10991 10990 10990 10989 10988 10987 10986 10985 10984 10984 10984 10984 10983 10982 10982 10981 10980 10979 10978 10978 10977 10976 10976
10923 10926 10929 10933 10936 10939 10942 10946 10949 10952 10955 10958 10960 10963 10966 10968 10971 10974 10974 10976 10979 10982 10985 10987 10990 10992 10993 10995 10996 10998 11000 11001 11003 11004 11006 11007 11008 11008 11009 11009 11009 11009 11008 11008 11007 11007 11007 11008 11008 11008 11008 11007 11006 11005 11004 11003 11002 11002 11000 10998 10997 10995 10994 10994 10993 10992 10992 10991 10990 10989 10988 10987 10986 10985 10985 10984 10984 10984 10983 10982 10981 10980 10979 10978 10977 10976 10975 10975
10916 10919 10922 10925 10928 10931 10935 10939 10943 10946 10949 10952 10955 10957 10960 10963 10966 10968 10969 10971 10974 10977 10980 10983 10985 10987 10988 10990 10992 10994 10997 10998 10999 11001 11003 11004 11005 11005 11006 11007 11008 11007 11007 11006 11006 11005 11005 11006 11006 11007 11007 11006 11006 11005 11004 11003 11002 11001 11000 10998 10997 10996 10995 10995 10994 10993 10993 10992 10991 10990 10989 10988 10987 10986 10985 10985 10984 10984 10983 10982 10982 10981 10980 10979 10977 10976 10975 10974
10909 10912 10915 10917 10921 10924 10927 10932 10936 10939 10942 10946 10948 10951 10954 10957 10960 10962 10964 10966 10969 10971 10974 10977 10980 10982 10983 10986 10988 10990 10992 10994 10995 10997 10999 11001 11002 11002 11004 11005 11005 11005 11005 11005 11004 11004 11004 11004 11004 11005 11005 11005 11005 11004 11003 11003 11002 11001 11000 10998 10997 10996 10996 10995 10994 10994 10993 10992 10991 10990 10989 10988 10987 10986 10985 10984 10984 10983 10983 10982 10982 10981 10980 10979 10977 10976 10975 10974
10901 10904 10907 10910 10913 10916 10920 10924 10928 10932 10935 10938 10942 10945 10948 10951 10954 10956 10959 10962 10964 10966 10969 10972 10975 10977 10979 10981 10983 10985 10987 10989 10991 10994 10996 10998 10999 10999 11001 11002 11002 11003 11003 11003 11003 11002 11002 11002 11002 11002 11003 11003 11003 11003 11002 11002 11001 11000 10999 10998 10997 10997 10996 10996 10995 10994 10994 10993 10992 10991 10990 10988 10987 10986 10985 10984 10983 10983 10982 10981 10981 10980 10979 10978 10977 10975 10974 10973
10893 10897 10900 10903 10906 10909 10912 10917 10921 10924 10928 10931 10935 10938 10941 10945 10948 10951 10954 10956 10958 10960 10962 10966 10969 10971 10974 10976 10978 10980 10982 10985 10987 10990 10992 10994 10995 10996 10998 10999 10999 11000 11000 11000 11001 11000 11000 10999 10999 11000 11000 11001 11001 11001 11001 11000 11000 10999 10998 10998 10997 10996 10996 10995 10995 10994 10994 10993 10992 10991 10990 10988 10987 10985 10984 10983 10983 10982 10981 10980 10979 10978 10978 10977 10975 10974 10973 10971
10885 10889 10892 10895 10899 10902 10905 10909 10914 10917 10921 10924 10928 10932 10935 10939 10942 10945 10948 10950 10952 10954 10958 10961 10963 10965 10968 10971 10973 10975 10978 10980 10983 10985 10988 10989 10991 10992 10994 10995 10996 10997 10997 10998 10998 10998 10998 10997 10997 10997 10997 10998 10998 10998 10998 10998 10998 10997 10997 10997 10996 10996 10995 10994 10994 10993 10992 10992 10991 10990 10989 10988 10986 10985 10984 10983 10983 10982 10980 10979 10978 10977 10976 10975 10974 10973 10971 10970
10877 10880 10884 10888 10891 10894 10897 10901 10906 10909 10913 10917 10920 10924 10928 10932 10937 10939 10940 10943 10945 10949 10953 10955 10957 10959 10963 10965 10968 10971 10973 10975 10977 10980 10983 10985 10986 10988 10990 10992 10993 10993 10994 10994 10995 10996 10995 10995 10995 10995 10995 10995 10995 10995 10996 10995 10995 10995 10995 10995 10996 10995 10994 10993 10993 10992 10991 10990 10990 10989 10988 10988 10987 10986 10986 10985 10983 10981 10979 10978 10977 10976 10975 10974 10972 10971 10970 10968
10868 10872 10876 10879 10883 10886 10889 10893 10898 10902 10905 10909 10913 10917 10920 10925 10929 10931 10933 10935 10938 10944 10948 10949 10950 10953 10957 10961 10963 10965 10967 10969 10973 10975 10977 10980 10982 10983 10986 10988 10989 10990 10990 10991 10992 10993 10993 10993 10993 10993 10992 10992 10993 10993 10993 10992 10992 10992 10992 10993 10993 10993 10993 10993 10992 10991 10990 10989 10988 10988 10987 10987 10986 10986 10986 10985 10983 10981 10980 10978 10976 10975 10974 10972 10971 10969 10968 10966
10859 10863 10867 10872 10875 10878 10881 10885 10889 10894 10897 10901 10905 10909 10913 10917 10921 10924 10926 10927 10934 10940 10941 10942 10944 10948 10952 10955 10956 10958 10962 10966 10968 10969 10972 10975 10977 10979 10981 10984 10985 10986 10986 10987 10989 10990 10990 10990 10990 10990 10990 10990 10990 10990 10990 10990 10990 10989 10990 10990 10990 10990 10990 10990 10990 10990 10989 10988 10987 10986 10986 10985 10985 10984 10983 10982 10981 10980 10979 10977 10976 10975 10973 10971 10970 10968 10966 10964
10850 10854 10858 10863 10867 10870 10873 10876 10881 10886 10889 10893 10897 10901 10904 10909 10912 10916 10918 10921 10929 10933 10933 10935 10939 10942 10946 10948 10949 10955 10958 10959 10960 10964 10968 10970 10971 10974 10977 10979 10981 10981 10982 10984 10985 10985 10987 10987 10987 10988 10988 10988 10988 10988 10988 10988 10988 10987 10987 10988 10987 10987 10987 10987 10987 10987 10987 10986 10985 10985 10984 10983 10983 10982 10981 10980 10979 10979 10978 10977 10976 10974 10973 10971 10968 10967 10965 10962
10841 10844 10849 10854 10858 10861 10865 10868 10872 10877 10881 10885 10889 10892 10896 10900 10904 10908 10912 10916 10922 10926 10927 10928 10932 10936 10940 10941 10944 10949 10950 10951 10956 10960 10962 10964 10966 10969 10972 10974 10975 10975 10978 10979 10980 10981 10983 10984 10984 10984 10984 10985 10985 10985 10985 10985 10986 10986 10985 10985 10985 10985 10985 10984 10985 10985 10984 10984 10983 10983 10982 10982 10982 10981 10979 10978 10977 10976 10976 10975 10975 10973 10972 10970 10968 10965 10963 10961
10831 10834 10839 10845 10849 10852 10856 10859 10863 10868 10873 10877 10880 10884 10888 10891 10897 10902 10905 10910 10916 10919 10918 10920 10926 10930 10932 10934 10938 10941 10942 10946 10952 10954 10955 10958 10960 10963 10965 10968 10969 10970 10973 10974 10975 10977 10979 10979 10980 10980 10981 10981 10982 10982 10983 10982 10983 10983 10983 10983 10982 10982 10982 10982 10982 10982 10982 10982 10981 10981 10980 10980 10980 10979 10978 10976 10974 10974 10973 10973 10972 10972 10970 10969 10967 10964 10962 10960
10820 10824 10828 10834 10839 10843 10847 10850 10854 10859 10865 10868 10872 10877 10879 10884 10892 10895 10898 10902 10907 10908 10908 10914 10921 10922 10924 10927 10931 10934 10936 10942 10945 10946 10949 10952 10954 10957 10960 10962 10964 10965 10968 10969 10971 10973 10974 10975 10975 10976 10977 10978 10979 10979 10979 10979 10979 10979 10980 10980 10980 10979 10979 10979 10979 10979 10979 10979 10979 10979 10979 10978 10977 10977 10977 10975 10973 10972 10971 10970 10969 10969 10968 10967 10965 10963 10961 10959
10810 10813 10818 10824 10829 10833 10837 10841 10845 10850 10856 10859 10864 10868 10872 10880 10885 10887 10891 10893 10895 10899 10903 10909 10913 10914 10917 10921 10924 10928 10931 10936 10939 10940 10943 10945 10948 10952 10954 10957 10959 10960 10962 10964 10967 10968 10969 10970 10970 10971 10973 10974 10975 10976 10975 10976 10976 10976 10977 10977 10976 10976 10976 10976 10976 10976 10976 10976 10976 10976 10976 10975 10975 10974 10974 10974 10972 10971 10969 10967 10966 10965 10965 10965 10964 10962 10960 10958
10799 10802 10807 10813 10818 10823 10827 10831 10836 10841 10846 10851 10856 10861 10868 10874 10876 10878 10881 10880 10885 10894 10897 10901 10904 10907 10911 10913 10916 10922 10925 10929 10932 10933 10937 10940 10943 10946 10948 10951 10953 10954 10957 10959 10960 10962 10963 10964 10965 10967 10969 10969 10971 10972 10971 10972 10972 10972 10974 10973 10973 10973 10973 10972 10972 10972 10972 10972 10972 10972 10973 10972 10972 10972 10971 10971 10970 10969 10967 10965 10964 10963 10962 10962 10961 10961 10959 10957
10788 10791 10796 10802 10808 10813 10817 10821 10826 10831 10837 10842 10848 10855 10862 10865 10865 10867 10866 10867 10878 10888 10889 10892 10896 10899 10903 10905 10910 10915 10918 10921 10925 10927 10931 10935 10937 10940 10942 10944 10946 10949 10952 10952 10954 10956 10957 10958 10961 10963 10963 10965 10967 10967 10967 10967 10968 10969 10969 10969 10970 10970 10969 10968 10968 10968 10968 10968 10968 10968 10969 10968 10968 10968 10968 10967 10966 10966 10965 10964 10962 10961 10960 10959 10959 10959 10958 10957
10776 10779 10784 10790 10796 10802 10807 10811 10816 10822 10828 10834 10841 10848 10853 10853 10853 10854 10857 10864 10877 10882 10882 10886 10888 10891 10896 10898 10903 10908 10911 10915 10919 10921 10925 10929 10931 10933 10936 10938 10941 10944 10945 10945 10948 10952 10950 10952 10957 10958 10957 10961 10962 10962 10963 10962 10963 10965 10964 10965 10966 10965 10965 10964 10964 10964 10963 10963 10963 10963 10963 10964 10964 10964 10964 10964 10963 10962 10962 10962 10961 10959 10958 10957 10956 10956 10956 10955
10765 10767 10772 10778 10785 10791 10797 10801 10807 10812 10818 10827 10834 10838 10842 10842 10842 10847 10854 10862 10871 10873 10875 10878 10880 10884 10887 10889 10895 10902 10905 10908 10912 10915 10918 10922 10924 10927 10929 10931 10934 10937 10937 10939 10942 10945 10944 10946 10952 10952 10952 10955 10957 10957 10958 10957 10958 10960 10959 10961 10962 10960 10960 10960 10959 10960 10959 10959 10958 10958 10958 10958 10959 10960 10960 10959 10959 10959 10959 10958 10958 10957 10955 10955 10953 10952 10952 10951
10752 10756 10760 10766 10774 10780 10786 10791 10796 10802 10810 10820 10825 10827 10831 10831 10834 10843 10849 10853 10859 10862 10864 10866 10868 10873 10877 10881 10888 10894 10897 10900 10905 10907 10910 10915 10917 10920 10921 10923 10927 10930 10930 10933 10935 10937 10939 10940 10945 10947 10947 10950 10952 10952 10953 10952 10952 10955 10955 10957 10958 10956 10956 10956 10956 10956 10956 10955 10954 10954 10954 10954 10955 10955 10955 10955 10954 10955 10955 10954 10954 10953 10951 10950 10949 10948 10947 10946
10740 10744 10748 10754 10762 10769 10775 10781 10787 10794 10803 10810 10812 10816 10819 10821 10826 10834 10837 10841 10848 10852 10852 10853 10858 10863 10868 10874 10880 10886 10890 10894 10897 10900 10903 10907 10909 10912 10914 10916 10921 10922 10923 10927 10928 10930 10934 10934 10936 10941 10943 10945 10947 10947 10946 10946 10947 10950 10951 10952 10952 10952 10952 10953 10953 10953 10951 10951 10950 10949 10949 10950 10952 10951 10950 10950 10949 10949 10950 10950 10949 10948 10946 10945 10944 10943 10942 10941
10729 10733 10737 10742 10751 10758 10764 10770 10777 10784 10791 10796 10800 10805 10808 10812 10819 10823 10826 10833 10839 10841 10842 10845 10851 10857 10861 10867 10872 10878 10883 10886 10889 10893 10895 10898 10903 10906 10908 10911 10914 10914 10916 10920 10921 10924 10928 10927 10929 10935 10939 10940 10940 10940 10940 10941 10944 10945 10945 10947 10947 10947 10948 10948 10949 10949 10948 10946 10946 10945 10944 10944 10948 10947 10945 10945 10944 10943 10944 10944 10944 10943 10942 10940 10938 10937 10936 10935
10718 10723 10727 10730 10739 10747 10753 10759 10766 10772 10779 10785 10790 10794 10799 10806 10810 10811 10817 10825 10828 10830 10834 10837 10842 10849 10854 10860 10865 10870 10874 10877 10882 10887 10888 10891 10897 10900 10901 10904 10905 10905 10909 10913 10915 10917 10920 10921 10923 10929 10934 10932 10932 10936 10936 10935 10938 10939 10940 10941 10940 10942 10944 10944 10944 10945 10943 10941 10942 10942 10938 10937 10942 10943 10942 10941 10939 10938 10938 10938 10938 10937 10935 10935 10933 10932 10931 10930
10708 10714 10715 10718 10728 10737 10742 10749 10754 10761 10768 10773 10778 10784 10792 10796 10797 10801 10809 10813 10816 10822 10826 10828 10834 10841 10846 10851 10855 10859 10864 10869 10876 10880 10880 10883 10890 10890 10892 10896 10897 10898 10903 10906 10908 10911 10914 10917 10918 10922 10926 10925 10926 10932 10931 10929 10933 10933 10933 10934 10934 10936 10939 10940 10940 10939 10937 10936 10938 10938 10933 10930 10934 10937 10938 10937 10935 10934 10934 10932 10932 10931 10929 10929 10927 10926 10925 10924
10699 10703 10703 10708 10719 10727 10732 10737 10743 10750 10756 10761 10768 10776 10780 10782 10786 10793 10799 10801 10806 10813 10816 10819 10826 10832 10837 10842 10845 10848 10856 10864 10869 10871 10872 10876 10879 10880 10884 10891 10891 10892 10897 10898 10899 10905 10909 10910 10911 10914 10918 10920 10923 10926 10923 10922 10926 10925 10925 10929 10931 10932 10933 10935 10935 10933 10931 10931 10932 10933 10929 10926 10928 10930 10931 10932 10931 10930 10930 10928 10927 10927 10925 10924 10922 10920 10919 10918
10688 10693 10695 10700 10709 10716 10722 10727 10733 10739 10745 10751 10759 10763 10766 10770 10777 10784 10787 10790 10797 10804 10809 10813 10818 10824 10830 10834 10837 10841 10849 10858 10860 10861 10864 10866 10867 10871 10880 10885 10884 10885 10889 10889 10891 10901 10903 10901 10904 10908 10911 10916 10918 10918 10914 10914 10917 10919 10921 10924 10926 10927 10926 10927 10928 10928 10927 10927 10927 10927 10924 10921 10924 10924 10924 10926 10925 10925 10925 10924 10922 10921 10921 10920 10918 10915 10914 10912
10678 10683 10687 10692 10699 10707 10712 10717 10723 10728 10733 10740 10746 10750 10755 10762 10768 10773 10778 10781 10787 10795 10801 10805 10810 10817 10823 10826 10828 10832 10841 10848 10848 10850 10855 10855 10858 10868 10877 10879 10876 10876 10882 10883 10888 10897 10894 10892 10900 10903 10904 10909 10911 10908 10907 10908 10911 10914 10917 10918 10920 10921 10920 10920 10922 10922 10921 10921 10922 10922 10919 10916 10917 10917 10917 10919 10919 10919 10921 10919 10917 10916 10915 10915 10913 10910 10909 10907
10669 10675 10680 10684 10690 10696 10701 10707 10713 10717 10723 10730 10734 10740 10747 10752 10757 10762 10767 10771 10778 10787 10792 10796 10801 10809 10813 10815 10819 10824 10833 10837 10836 10841 10849 10849 10855 10866 10871 10869 10865 10868 10877 10879 10882 10887 10884 10886 10896 10898 10896 10902 10903 10900 10900 10902 10905 10908 10910 10911 10912 10914 10914 10915 10917 10916 10913 10913 10915 10916 10915 10912 10909 10909 10911 10913 10913 10913 10914 10913 10911 10910 10909 10909 10908 10905 10904 10902
10662 10668 10671 10675 10680 10685 10692 10699 10704 10708 10714 10718 10723 10730 10735 10739 10745 10749 10755 10763 10771 10776 10782 10788 10793 10799 10803 10807 10811 10815 10822 10826 10827 10835 10844 10843 10847 10858 10861 10858 10858 10864 10870 10871 10873 10878 10879 10883 10891 10889 10888 10894 10895 10892 10895 10898 10899 10899 10902 10904 10905 10907 10908 10909 10912 10911 10906 10905 10906 10907 10908 10907 10902 10902 10905 10907 10908 10907 10907 10906 10905 10904 10903 10902 10902 10901 10899 10897
10654 10658 10663 10668 10672 10677 10684 10689 10692 10696 10702 10707 10713 10720 10722 10726 10733 10739 10747 10757 10761 10764 10772 10779 10782 10788 10795 10799 10802 10804 10809 10815 10818 10826 10834 10833 10838 10851 10853 10849 10852 10858 10861 10862 10866 10872 10875 10878 10881 10881 10883 10887 10886 10887 10891 10892 10890 10890 10894 10897 10898 10900 10903 10903 10905 10905 10901 10897 10897 10899 10902 10900 10895 10895 10898 10900 10902 10902 10900 10899 10898 10898 10897 10896 10895 10894 10893 10891
10644 10651 10655 10659 10663 10668 10674 10678 10680 10686 10693 10699 10705 10708 10710 10716 10724 10732 10740 10745 10747 10753 10762 10768 10772 10780 10787 10789 10790 10793 10799 10807 10811 10816 10822 10824 10830 10841 10843 10840 10844 10848 10850 10853 10858 10864 10869 10870 10871 10874 10877 10878 10878 10881 10884 10883 10880 10881 10885 10889 10891 10894 10896 10896 10896 10896 10893 10890 10889 10892 10895 10893 10889 10890 10892 10892 10894 10895 10893 10892 10892 10891 10890 10889 10889 10887 10886 10884
10636 10643 10647 10650 10656 10660 10663 10668 10672 10678 10684 10690 10695 10698 10701 10708 10717 10724 10729 10732 10738 10746 10753 10759 10766 10772 10774 10774 10777 10784 10792 10797 10801 10806 10813 10816 10821 10828 10831 10831 10834 10837 10840 10845 10851 10858 10862 10861 10863 10868 10869 10868 10871 10874 10875 10872 10870 10874 10879 10883 10886 10887 10887 10886 10885 10886 10887 10885 10883 10885 10887 10885 10885 10887 10886 10884 10885 10886 10885 10884 10885 10884 10883 10882 10881 10880 10878 10877
10628 10634 10638 10644 10649 10650 10654 10659 10664 10669 10675 10682 10688 10691 10693 10700 10706 10711 10715 10721 10730 10738 10742 10749 10757 10758 10757 10763 10771 10778 10782 10786 10791 10798 10803 10806 10811 10818 10821 10823 10826 10828 10831 10837 10843 10849 10852 10853 10859 10863 10860 10859 10863 10865 10864 10860 10861 10868 10874 10875 10878 10880 10879 10877 10876 10877 10879 10877 10876 10877 10877 10878 10881 10882 10879 10878 10877 10877 10878 10878 10877 10877 10876 10875 10874 10873 10871 10869